Location: Atlantic Beach
(40.5890°N, 73.7290°W)
Time: 00:50:42
(UTC+00:00)

Envisat - Pass Details

Date: 23 January 2021
Orbit: 764 x 766 km, 98.1° (Epoch: 03 March)

Event Time Altitude Azimuth Distance (km) Brightness Sun altitude
Rises 09:11:46 0° 37° (NE) 3,239 6.7 -34.1°
Reaches altitude 10° 09:15:59 10° 71° (ENE) 2,305 6.2 -33.3°
Maximum altitude 09:17:31 11° 89° (E) 2,213 6.2 -33.0°
Drops below altitude 10° 09:19:03 10° 106° (ESE) 2,299 6.2 -32.7°
Sets 09:23:14 0° 140° (SE) 3,217 6.7 -31.9°
